• In Deutschland
  • Länderverzeichnis
  • Für 7 Tage
  • Wassertemperatur
  • Satellitenkarten
  • Wetterkarte
  • Widgets
  • user-avatar
    Anmelden

    Stündliche Wetter San Luis

    Heute, 26 September, Dienstag

    Zeit Temperatur Niederschläge Wind Luftdruck Luftfeuchtigkeit
    00:00 +20°C° 0 mm 5 m/S 699 mmHg 68%
    01:00 +20°C° 0 mm 5 m/S 699 mmHg 68%
    02:00 +20°C° 0 mm 6 m/S 699 mmHg 70%
    03:00 +19°C° 0 mm 5 m/S 699 mmHg 72%
    04:00 +19°C° 0 mm 5 m/S 699 mmHg 74%
    05:00 +19°C° 0 mm 5 m/S 699 mmHg 77%
    06:00 +19°C° 0,1 mm 6 m/S 699 mmHg 75%
    07:00 +20°C° 0,1 mm 6 m/S 700 mmHg 73%
    08:00 +20°C° 0,1 mm 7 m/S 700 mmHg 71%
    09:00 +20°C° 0,4 mm 7 m/S 701 mmHg 70%
    10:00 +20°C° 0,4 mm 8 m/S 701 mmHg 69%
    11:00 +18°C° 0,4 mm 8 m/S 701 mmHg 68%
    12:00 +17°C° 0,2 mm 8 m/S 701 mmHg 69%
    13:00 +16°C° 0,2 mm 8 m/S 700 mmHg 69%
    14:00 +15°C° 0,2 mm 7 m/S 700 mmHg 70%
    15:00 +14°C° 0 mm 7 m/S 700 mmHg 71%
    16:00 +12°C° 0 mm 8 m/S 700 mmHg 72%
    17:00 +11°C° 0 mm 8 m/S 700 mmHg 73%
    18:00 +11°C° 0 mm 8 m/S 700 mmHg 75%
    19:00 +10°C° 0 mm 8 m/S 701 mmHg 76%
    20:00 +9°C° 0 mm 8 m/S 701 mmHg 78%
    21:00 +9°C° 0 mm 8 m/S 702 mmHg 79%
    22:00 +8°C° 0 mm 7 m/S 702 mmHg 79%
    23:00 +8°C° 0 mm 7 m/S 703 mmHg 79%

    Morgen, 27 September, Mittwoch

    Zeit Temperatur Niederschläge Wind Luftdruck Luftfeuchtigkeit
    00:00 +8°C° 0 mm 7 m/S 702 mmHg 80%
    01:00 +8°C° 0 mm 6 m/S 702 mmHg 81%
    02:00 +8°C° 0 mm 6 m/S 702 mmHg 81%
    03:00 +8°C° 0 mm 6 m/S 702 mmHg 81%
    04:00 +7°C° 0 mm 6 m/S 702 mmHg 81%
    05:00 +7°C° 0 mm 6 m/S 703 mmHg 82%
    06:00 +8°C° 0 mm 6 m/S 703 mmHg 80%
    07:00 +8°C° 0 mm 6 m/S 703 mmHg 78%
    08:00 +8°C° 0 mm 6 m/S 704 mmHg 77%
    09:00 +10°C° 0 mm 6 m/S 704 mmHg 72%
    10:00 +11°C° 0 mm 6 m/S 704 mmHg 68%
    11:00 +13°C° 0 mm 6 m/S 704 mmHg 64%
    12:00 +14°C° 0 mm 6 m/S 704 mmHg 61%
    13:00 +15°C° 0 mm 6 m/S 703 mmHg 58%
    14:00 +16°C° 0 mm 6 m/S 703 mmHg 55%
    15:00 +16°C° 0 mm 6 m/S 702 mmHg 56%
    16:00 +15°C° 0 mm 6 m/S 702 mmHg 57%
    17:00 +15°C° 0 mm 6 m/S 701 mmHg 59%
    18:00 +14°C° 0 mm 6 m/S 702 mmHg 63%
    19:00 +13°C° 0 mm 6 m/S 702 mmHg 67%
    20:00 +11°C° 0 mm 6 m/S 702 mmHg 71%
    21:00 +12°C° 0 mm 5 m/S 702 mmHg 71%
    22:00 +12°C° 0 mm 5 m/S 702 mmHg 71%
    23:00 +12°C° 0 mm 4 m/S 702 mmHg 72%

    übermorgen, 28 September, Donnerstag

    Zeit Temperatur Niederschläge Wind Luftdruck Luftfeuchtigkeit
    00:00 +12°C° 0 mm 3 m/S 702 mmHg 73%
    01:00 +12°C° 0 mm 3 m/S 701 mmHg 75%
    02:00 +13°C° 0 mm 2 m/S 701 mmHg 77%
    03:00 +13°C° 0 mm 2 m/S 701 mmHg 79%
    04:00 +13°C° 0 mm 2 m/S 701 mmHg 81%
    05:00 +12°C° 0 mm 2 m/S 700 mmHg 83%
    06:00 +14°C° 0 mm 2 m/S 701 mmHg 79%
    07:00 +14°C° 0 mm 3 m/S 701 mmHg 74%
    08:00 +16°C° 0 mm 3 m/S 702 mmHg 70%
    09:00 +17°C° 0 mm 4 m/S 702 mmHg 67%
    10:00 +18°C° 0 mm 4 m/S 702 mmHg 63%
    11:00 +19°C° 0 mm 5 m/S 702 mmHg 60%
    12:00 +20°C° 0 mm 5 m/S 701 mmHg 57%
    13:00 +20°C° 0 mm 4 m/S 700 mmHg 55%
    14:00 +21°C° 0 mm 4 m/S 700 mmHg 52%
    15:00 +21°C° 0 mm 4 m/S 699 mmHg 53%
    16:00 +21°C° 0 mm 4 m/S 699 mmHg 54%
    17:00 +20°C° 0 mm 4 m/S 698 mmHg 55%
    18:00 +19°C° 0 mm 4 m/S 699 mmHg 60%
    19:00 +18°C° 0 mm 3 m/S 699 mmHg 65%
    20:00 +17°C° 0 mm 3 m/S 699 mmHg 69%
    21:00 +17°C° 0 mm 3 m/S 699 mmHg 71%
    22:00 +17°C° 0 mm 3 m/S 700 mmHg 73%
    23:00 +16°C° 0 mm 2 m/S 700 mmHg 75%

    29 September, Freitag

    Zeit Temperatur Niederschläge Wind Luftdruck Luftfeuchtigkeit
    00:00 +16°C° 0 mm 2 m/S 699 mmHg 77%
    01:00 +16°C° 0 mm 2 m/S 699 mmHg 79%
    02:00 +15°C° 0 mm 2 m/S 699 mmHg 81%
    03:00 +15°C° 0 mm 2 m/S 698 mmHg 83%
    04:00 +15°C° 0 mm 2 m/S 698 mmHg 84%
    05:00 +14°C° 0 mm 2 m/S 698 mmHg 86%
    06:00 +16°C° 0 mm 3 m/S 699 mmHg 80%
    07:00 +17°C° 0 mm 3 m/S 699 mmHg 74%
    08:00 +18°C° 0 mm 3 m/S 700 mmHg 68%
    09:00 +20°C° 0 mm 3 m/S 699 mmHg 61%
    10:00 +22°C° 0 mm 4 m/S 699 mmHg 53%
    11:00 +23°C° 0 mm 4 m/S 699 mmHg 46%
    12:00 +25°C° 0 mm 4 m/S 698 mmHg 42%
    13:00 +26°C° 0 mm 3 m/S 698 mmHg 39%
    14:00 +27°C° 0 mm 3 m/S 697 mmHg 35%
    15:00 +27°C° 0 mm 4 m/S 696 mmHg 34%
    16:00 +28°C° 0 mm 4 m/S 696 mmHg 33%
    17:00 +28°C° 0 mm 4 m/S 695 mmHg 33%
    18:00 +26°C° 0 mm 4 m/S 695 mmHg 39%
    19:00 +23°C° 0 mm 4 m/S 695 mmHg 45%
    20:00 +22°C° 0 mm 5 m/S 695 mmHg 51%
    21:00 +21°C° 0 mm 5 m/S 695 mmHg 54%
    22:00 +21°C° 0 mm 6 m/S 694 mmHg 56%
    23:00 +20°C° 0 mm 7 m/S 694 mmHg 59%

    30 September, Samstag

    Zeit Temperatur Niederschläge Wind Luftdruck Luftfeuchtigkeit
    00:00 +20°C° 0 mm 8 m/S 693 mmHg 60%
    01:00 +19°C° 0 mm 9 m/S 692 mmHg 60%
    02:00 +18°C° 0 mm 10 m/S 692 mmHg 60%
    03:00 +18°C° 0 mm 10 m/S 691 mmHg 63%
    04:00 +18°C° 0 mm 9 m/S 690 mmHg 66%
    05:00 +17°C° 0 mm 9 m/S 690 mmHg 69%
    06:00 +18°C° 0 mm 9 m/S 690 mmHg 64%
    07:00 +19°C° 0 mm 9 m/S 690 mmHg 58%
    08:00 +21°C° 0 mm 8 m/S 691 mmHg 53%
    09:00 +22°C° 0 mm 7 m/S 690 mmHg 47%
    10:00 +23°C° 0 mm 5 m/S 690 mmHg 41%
    11:00 +26°C° 0 mm 4 m/S 690 mmHg 35%
    12:00 +27°C° 0 mm 4 m/S 690 mmHg 30%
    13:00 +28°C° 0 mm 5 m/S 689 mmHg 25%
    14:00 +29°C° 0 mm 6 m/S 689 mmHg 20%
    15:00 +27°C° 0,5 mm 8 m/S 689 mmHg 30%
    16:00 +23°C° 0,5 mm 11 m/S 689 mmHg 40%
    17:00 +19°C° 0,5 mm 13 m/S 689 mmHg 51%
    18:00 +18°C° 0,9 mm 12 m/S 690 mmHg 52%
    19:00 +16°C° 0,9 mm 11 m/S 691 mmHg 54%
    20:00 +13°C° 0,9 mm 10 m/S 692 mmHg 55%
    21:00 +13°C° 0 mm 9 m/S 692 mmHg 54%
    22:00 +13°C° 0 mm 8 m/S 692 mmHg 52%
    23:00 +12°C° 0 mm 7 m/S 693 mmHg 51%

    1 Oktober, Sonntag

    Zeit Temperatur Niederschläge Wind Luftdruck Luftfeuchtigkeit
    00:00 +13°C° 0 mm 5 m/S 693 mmHg 53%
    01:00 +13°C° 0 mm 4 m/S 692 mmHg 55%
    02:00 +12°C° 0 mm 3 m/S 692 mmHg 58%
    03:00 +12°C° 0 mm 4 m/S 693 mmHg 57%
    04:00 +11°C° 0 mm 4 m/S 693 mmHg 57%
    05:00 +10°C° 0 mm 5 m/S 693 mmHg 56%
    06:00 +10°C° 0 mm 7 m/S 694 mmHg 51%
    07:00 +11°C° 0 mm 8 m/S 695 mmHg 46%
    08:00 +11°C° 0 mm 10 m/S 695 mmHg 41%
    09:00 +13°C° 0 mm 10 m/S 696 mmHg 35%
    10:00 +14°C° 0 mm 11 m/S 696 mmHg 29%
    11:00 +16°C° 0 mm 11 m/S 696 mmHg 23%
    12:00 +17°C° 0 mm 11 m/S 696 mmHg 21%
    13:00 +18°C° 0 mm 11 m/S 695 mmHg 20%
    14:00 +18°C° 0 mm 11 m/S 695 mmHg 18%
    15:00 +18°C° 0 mm 11 m/S 695 mmHg 19%
    16:00 +17°C° 0 mm 10 m/S 694 mmHg 20%
    17:00 +17°C° 0 mm 10 m/S 694 mmHg 21%
    18:00 +16°C° 0 mm 8 m/S 694 mmHg 25%
    19:00 +14°C° 0 mm 7 m/S 695 mmHg 28%
    20:00 +13°C° 0 mm 6 m/S 695 mmHg 31%
    21:00 +13°C° 0 mm 5 m/S 695 mmHg 33%
    22:00 +12°C° 0 mm 4 m/S 695 mmHg 35%
    23:00 +11°C° 0 mm 3 m/S 695 mmHg 36%
    Mehr zeigen